Location: Peach Mountain Observatory
(42.3967°N, 83.9367°W)
Time: 20:49:44
(UTC-05:00)

S-56A Canister/Altair - Pass Details

Date: 01 February 2020
Orbit: 633 x 2499 km, 38.9° (Epoch: 21 February)

Event Time Altitude Azimuth Distance (km) Brightness Sun altitude
Rises 15:34:18 0° 196° (SSW) 5,821 13.1 19.4°
Reaches altitude 10° 15:40:04 10° 180° (S) 4,515 12.3 18.7°
Maximum altitude 15:47:05 18° 144° (SE) 3,442 11.1 17.8°
Drops below altitude 10° 15:52:50 10° 106° (ESE) 3,587 10.7 17.1°
Sets 15:56:36 0° 88° (E) 4,237 10.9 16.6°
